Don Miguel - Guadalaj, Mexico

12:24 AM CDT on August 29, 2016 (GMT -0500)
Don Miguel Hidalgo International

Weather History for MMGL - September, 2013

Change the Weather History Date:

Tuesday, September 17, 2013

  Actual Average Record
Temperature  
Mean Temperature 68 °F -  
Max Temperature 75 °F 77 °F 82 °F (1997)
Min Temperature 62 °F 58 °F 55 °F (2006)
Cooling Degree Days 4    
Growing Degree Days 18 (Base 50)    
Moisture  
Dew Point 60 °F    
Average Humidity 79    
Maximum Humidity 94    
Minimum Humidity 28    
Precipitation  
Precipitation 1.55 in - - ()
Sea Level Pressure  
Sea Level Pressure 29.96 in    
Wind  
Wind Speed 3 mph ()    
Max Wind Speed 13 mph    
Max Gust Speed -    
Visibility 9.2 miles    
Events Rain    
Averages and records for this station are not official NWS values.
T = Trace of Precipitation, MM = Missing Value Source: Averaged Metar Reports

Daily Weather History Graph

Daily Weather History Graph

Search for Another Location

Airport or City:

Trip Planner

Search our weather history database for the weather conditions in past years. The results will help you decide how hot, cold, wet, or windy it might be!

Date:

Astronomy

Sep. 17, 2013 Rise Set
Actual Time 7:41 AM CDT 7:53 PM CDT
Civil Twilight 7:18 AM CDT 8:15 PM CDT
Nautical Twilight 6:53 AM CDT 8:41 PM CDT
Astronomical Twilight 6:27 AM CDT 9:07 PM CDT
Moon 6:36 PM CDT (9/17) 5:48 AM CDT (9/17)
Length of Visible Light 12h 57m
Length of Day
12h 12m
Waxing Gibbous, 96% of the Moon is Illuminated
Sep 17
Waxing Gibbous
Sep 19
Full
Sep 26
Last Quarter
Oct 4
New
Oct 11
First Quarter

Hourly Weather History & Observations

Time (CDT) Temp. Dew Point Humidity Pressure Visibility Wind Dir Wind Speed Gust Speed Precip Events Conditions
12:44 AM 64.4 °F 60.8 °F 88% 29.78 in 10.0 mi Calm Calm - N/A   Mostly Cloudy
1:44 AM 64.4 °F 60.8 °F 88% 30.06 in 10.0 mi South 3.5 mph - N/A   Mostly Cloudy
2:43 AM 64.4 °F 60.8 °F 88% 30.06 in 10.0 mi Calm Calm - N/A   Mostly Cloudy
3:46 AM 64.4 °F 60.8 °F 88% 29.76 in 10.0 mi Calm Calm - N/A   Mostly Cloudy
4:46 AM 64.4 °F 60.8 °F 88% 30.02 in 10.0 mi Calm Calm - N/A   Mostly Cloudy
5:42 AM 64.4 °F 60.8 °F 88% 30.03 in 10.0 mi Calm Calm - N/A   Mostly Cloudy
6:49 AM 64.4 °F 60.8 °F 88% 29.78 in 10.0 mi SE 3.5 mph - N/A Rain Light Rain
7:53 AM 62.6 °F 60.8 °F 94% 30.06 in 8.0 mi ESE 5.8 mph - N/A   Overcast
8:50 AM 64.4 °F 60.8 °F 88% 30.08 in 5.0 mi ESE 4.6 mph - N/A   Overcast
9:51 AM 66.2 °F 60.8 °F 83% 29.81 in 5.0 mi SE 4.6 mph - N/A   Overcast
10:51 AM 66.2 °F 62.6 °F 88% 30.11 in 7.0 mi SE 2.3 mph - N/A Rain Light Rain
11:45 AM 69.8 °F 62.6 °F 78% 30.11 in 7.0 mi ESE 8.1 mph - N/A   Overcast
12:44 PM 71.6 °F 60.8 °F 69% 29.80 in 8.0 mi SE 4.6 mph - N/A   Overcast
1:46 PM 71.6 °F 60.8 °F 69% 30.07 in 10.0 mi SSE 4.6 mph - N/A   Overcast
2:50 PM 73.4 °F 60.8 °F 65% 30.04 in 10.0 mi South 5.8 mph - N/A   Overcast
3:46 PM 75.2 °F 60.8 °F 61% 29.69 in 10.0 mi SW 4.6 mph - N/A   Overcast
4:51 PM 73.4 °F 60.8 °F 65% 30.00 in 10.0 mi South 12.7 mph - N/A   Overcast
5:53 PM 71.6 °F 62.6 °F 73% 30.00 in 10.0 mi West 8.1 mph - N/A   Overcast
6:51 PM 71.6 °F 62.6 °F 73% 29.72 in 10.0 mi West 3.5 mph - N/A   Mostly Cloudy
7:53 PM 69.8 °F 35.6 °F 28% 30.02 in 10.0 mi NW 8.1 mph - N/A   Mostly Cloudy
8:46 PM 66.2 °F 62.6 °F 88% 30.04 in 10.0 mi South 2.3 mph - N/A   Scattered Clouds
9:50 PM 66.2 °F 62.6 °F 88% 29.80 in 10.0 mi Calm Calm - N/A   Scattered Clouds
10:50 PM 64.4 °F 62.6 °F 94% 30.08 in 10.0 mi Calm Calm - N/A   Scattered Clouds
11:53 PM 64.4 °F 60.8 °F 88% 30.09 in 10.0 mi Calm Calm - N/A   Partly Cloudy